DW7465 Weather Reports


time (UTC)temp
C
wind
direction
speed
KPH
gust
KPH
rain 1hr
cm
rain 24hr
cm
rain mn
cm
humidity
%
barometer
mb
20260507051545 11 0 0.0 0.0 0.00 0.00 0.00 90 1020.8
20260507050046 11 0 0.0 0.0 0.00 0.00 0.00 90 1020.7
20260507044545 11 0 0.0 0.0 0.00 0.00 0.00 89 1020.7
20260507043047 11 0 0.0 0.0 0.00 0.00 0.00 88 1020.6
20260507041545 12 0 0.0 0.0 0.00 0.00 0.00 86 1020.4
20260507040100 12 0 0.0 0.0 0.00 0.00 0.00 85 1020.5
20260507034546 12 0 0.0 0.0 0.00 0.00 0.00 86 1020.5
20260507033048 12 0 0.0 1.6 0.00 0.00 0.00 85 1020.3
20260507031546 13 0 0.0 0.0 0.00 0.00 0.00 85 1020.3
20260507030047 13 0 0.0 0.0 0.00 0.00 0.00 84 1020.2
20260507024544 13 0 0.0 0.0 0.00 0.00 0.00 84 1020.3
20260507023046 13 0 0.0 4.8 0.00 0.00 0.00 83 1020.1
20260507021545 13 0 0.0 1.6 0.00 0.00 0.00 83 1020.0
20260507020047 13 0 0.0 4.8 0.00 0.00 0.00 83 1020.1
20260507014551 13 265 0.0 4.8 0.00 0.00 0.00 82 1020.0
20260507013050 13 265 0.0 4.8 0.00 0.00 0.00 80 1020.0
20260507011545 13 265 0.0 3.2 0.00 0.00 0.00 79 1020.1
20260507010055 13 0 0.0 1.6 0.00 0.00 0.00 81 1020.2
20260507004548 13 0 0.0 6.4 0.00 0.00 0.00 79 1020.2
20260507003045 14 263 0.0 9.7 0.00 0.00 0.00 77 1020.2
20260507001550 14 0 0.0 8.0 0.00 0.00 0.00 77 1020.1
20260507000047 13 0 0.0 6.4 0.00 0.00 0.00 78 1020.1
20260506234545 13 0 0.0 4.8 0.00 0.00 0.00 78 1020.1
20260506233104 14 0 0.0 9.7 0.00 0.00 0.00 76 1020.2
20260506231549 15 0 0.0 12.9 0.00 0.00 0.00 76 1020.3
20260506224545 14 0 0.0 6.4 0.00 0.00 0.00 77 1020.2
20260506223047 13 0 0.0 6.4 0.00 0.00 0.00 78 1020.3
20260506221553 13 115 0.0 4.8 0.00 0.00 0.00 80 1020.4
20260506220046 13 0 0.0 4.8 0.00 0.00 0.00 80 1020.5
20260506214551 13 111 0.0 9.7 0.00 0.00 0.00 79 1020.4
20260506213046 13 0 0.0 11.3 0.00 0.00 0.00 80 1020.5
20260506211546 13 0 0.0 6.4 0.00 0.00 0.00 84 1020.6
20260506210047 13 0 0.0 6.4 0.00 0.00 0.00 84 1020.6
20260506204544 13 0 3.2 11.3 0.00 0.00 0.00 83 1020.5
20260506203047 13 0 0.0 6.4 0.00 0.00 0.00 86 1020.4
20260506201545 12 337 0.0 4.8 0.00 0.00 0.00 89 1020.4
20260506200047 13 333 0.0 8.0 0.00 0.00 0.00 88 1020.5
20260506194549 13 0 0.0 4.8 0.00 0.00 0.00 92 1020.3
20260506193044 12 0 0.0 6.4 0.00 0.00 0.00 91 1020.3
20260506191548 12 0 1.6 9.7 0.00 0.00 0.00 88 1020.3
20260506190047 12 0 0.0 8.0 0.00 0.00 0.00 90 1020.2
20260506184545 12 0 1.6 6.4 0.00 0.00 0.00 91 1020.2
20260506183046 12 0 0.0 3.2 0.00 0.00 0.00 92 1020.0
20260506181546 12 0 0.0 8.0 0.00 0.00 0.00 90 1020.2
20260506180047 12 0 0.0 9.7 0.00 0.00 0.00 89 1020.2
20260506174547 12 0 1.6 16.1 0.00 0.00 0.00 89 1019.6
20260506173104 12 0 0.0 6.4 0.00 0.00 0.00 90 1019.7
20260506171552 12 0 0.0 4.8 0.00 0.00 0.00 90 1020.0
20260506170047 12 0 0.0 3.2 0.00 0.00 0.00 90 1019.8
20260506164558 12 0 0.0 6.4 0.00 0.00 0.00 89 1019.7
20260506163045 12 0 0.0 4.8 0.00 0.00 0.00 91 1019.6
20260506161548 12 0 0.0 4.8 0.00 0.00 0.00 92 1019.5
20260506160059 12 0 0.0 3.2 0.00 0.00 0.00 93 1019.4
20260506154552 12 0 0.0 8.0 0.00 0.00 0.00 94 1019.1
20260506153047 11 0 0.0 0.0 0.00 0.00 0.00 94 1019.3
20260506151545 11 0 0.0 1.6 0.00 0.00 0.00 94 1019.5
20260506150045 11 0 0.0 1.6 0.00 0.00 0.00 94 1019.3
20260506144547 11 0 0.0 3.2 0.00 0.00 0.00 94 1019.1
20260506143045 11 0 0.0 3.2 0.00 0.00 0.00 94 1019.2
20260506141603 11 0 0.0 1.6 0.00 0.00 0.00 94 1019.2
20260506140048 11 0 0.0 1.6 0.00 0.00 0.00 93 1019.0
20260506134551 11 0 0.0 3.2 0.00 0.00 0.00 93 1019.1
20260506133045 11 0 0.0 6.4 0.00 0.00 0.00 92 1018.7
20260506131547 11 0 0.0 8.0 0.00 0.00 0.00 92 1018.7
20260506130047 11 0 0.0 3.2 0.00 0.00 0.00 93 1018.3
20260506124546 11 0 0.0 1.6 0.00 0.00 0.00 93 1018.1
20260506123048 11 0 0.0 0.0 0.00 0.00 0.00 93 1018.3
20260506121554 11 0 0.0 0.0 0.00 0.00 0.00 93 1018.1
20260506120118 11 0 0.0 3.2 0.00 0.00 0.00 94 1018.0
20260506114547 11 0 0.0 3.2 0.00 0.00 0.00 95 1018.0
20260506113046 11 0 0.0 6.4 0.00 0.00 0.00 95 1017.9
20260506111547 11 0 0.0 1.6 0.00 0.00 0.00 96 1017.6
20260506110044 10 0 0.0 1.6 0.00 0.00 0.00 96 1017.6
20260506104548 10 0 0.0 1.6 0.00 0.00 0.00 96 1017.4
20260506103046 10 0 0.0 4.8 0.00 0.00 0.00 96 1017.4
20260506101548 9 0 0.0 0.0 0.00 0.00 0.00 96 1017.4
20260506100043 8 0 0.0 0.0 0.00 0.00 0.00 95 1017.4
20260506094545 8 0 0.0 0.0 0.00 0.00 0.00 95 1017.3
20260506093050 8 0 0.0 0.0 0.00 0.00 0.00 95 1017.0
20260506091545 8 0 0.0 0.0 0.00 0.00 0.00 94 1017.0
20260506090045 8 0 0.0 0.0 0.00 0.00 0.00 95 1016.8
20260506084544 9 0 0.0 0.0 0.00 0.00 0.00 94 1016.6
20260506083044 9 0 0.0 0.0 0.00 0.00 0.00 94 1016.7
20260506081550 9 0 0.0 0.0 0.00 0.00 0.00 94 1016.5
20260506073050 10 0 0.0 0.0 0.00 0.00 0.00 94 1016.4
20260506071553 10 0 0.0 0.0 0.00 0.00 0.00 94 1016.3
20260506070107 10 0 0.0 0.0 0.00 0.00 0.00 93 1016.4
20260506061552 11 0 0.0 0.0 0.00 0.00 0.00 92 1016.2